Вернуться в каталог

OPS 4682 DEB

АктивенPO
NORAD 38397·DEBRIS·🇺🇸 United States

Запущен Apr 3, 1965 с Vandenberg Space Force Base

Loading…

Ближайшие Пролёты (ближайшие 24 часа)

TLE

СвежийSource: Space-Track

Эпоха: Sep 14, 2026, 07:28 UTC

1 38397U 65027DA  26257.31112562  .00000082  00000-0  24632-3 0  9993
2 38397  90.2591  19.6638 0039775  21.9921 338.2897 13.00034996674435

Отслеживайте OPS 4682 DEB в реальном времени с AllMySat

Download on the App Store